Location: Newark
(30.0333°N, 31.2167°E)
Time: 18:41:03
(UTC+00:00)

Tiros 1 despin weight - Pass Details

Date: 25 January 2020
Orbit: 594 x 642 km, 48.2° (Epoch: 27 February)

Event Time Altitude Azimuth Distance (km) Brightness Sun altitude
Rises 16:30:35 0° 303° (WNW) 2,929 ? -14.2°
Reaches altitude 10° 16:33:01 10° 295° (WNW) 2,023 ? -14.7°
Maximum altitude 16:37:22 39° 227° (SW) 957 ? -15.6°
Drops below altitude 10° 16:41:42 10° 159° (SSE) 2,020 ? -16.5°
Sets 16:44:08 0° 151° (SSE) 2,925 ? -17.1°
